Unicom:                    122.8

AWOS:                  118.275

Elevation           1458’ MSL

TPA:                   2500’ MSL

06/24:         5003’ L   75’ W

PAPI:       06/Left     24/Left

(Operate lights on unicom freq.)

Traffic Pattern: Left

Beacon: Sunset to Sunrise

Windsock: yes, lighted

Segmented Circle: No

 

Cleveland Center: 126.72/291.65

FSS: Altoona

[Source: ADDS]
METAR
KFKL 071820Z AUTO 23009KT 10SM OVC031 M04/M09 A3015 RMK AO2 FZRANO =
KFKL 071819Z 0718/0818 25006KT P6SM OVC030 FM072000 23005KT P6SM BKN045 FM080400 00000KT P6SM BKN050 TEMPO 0805/0809 4SM -SN FM080900 VRB02KT P6SM OVC050 FM081700 23005KT P6SM OVC060
TAF
KFKL 071819Z 0718/0818 25006KT P6SM OVC030 FM072000 23005KT P6SM BKN045 FM080400 00000KT P6SM BKN050 TEMPO 0805/0809 4SM -SN FM080900 VRB02KT P6SM OVC050 FM081700 23005KT P6SM OVC060 =
[Source: ADDS]
METAR
KDUJ 071830Z AUTO 22008KT 10SM SCT022 SCT027 M02/M08 A3012 RMK AO2 T10221078 =
KDUJ 071722Z 0718/0818 25010KT P6SM SCT015 OVC040 FM080600 17003KT P6SM OVC050 TEMPO 0806/0810 4SM -SN FM081000 VRB02KT P6SM OVC040 FM081600 21005KT P6SM OVC060
TAF
KDUJ 071722Z 0718/0818 25010KT P6SM SCT015 OVC040 FM080600 17003KT P6SM OVC050 TEMPO 0806/0810 4SM -SN FM081000 VRB02KT P6SM OVC040 FM081600 21005KT P6SM OVC060 =

Welcome to Clarion County Airport.

We look forward to serving all of your aviation needs.


Clarion County Airport is a General Aviation, Business Class airport serving the Clarion County Area in Central Western Pennsylvania.  Our 5,003' asphalt runway and gps approaches are capable of serving most of the general aviation fleet in most weather conditions.


If you are planning a fuel stop while flying in Western Pennsylvania, consider paying us a visit. Our prices are some of the lowest in the state Check prices here ----> www.airnav.com/fuel and enter identifier KAXQ or see current prices below. We can have you fueled and taxiing out to the runway in about 10 minutes. Our current hours of operation are Monday- Sunday 8:00AM-4:00PM. Holiday closures are Christmas Day and Thanksgiving. If you require use of the facilities during the holidays or after hours please call ahead and someone will be there to assist you.


- Airport Manager -  


                             CURRENT FUEL PRICES       JET-A w/additive    $4.00            100LL     $4.95 CC  


                              Self Service fueling available 24/7, credit card reader enabled. Center point fueling available upon request.

                                                           For after hours fueling assistance please contact 814-316-5746